Date,TemperatureHighF,TemperatureAvgF,TemperatureLowF,DewpointHighF,DewpointAvgF,DewpointLowF,HumidityHigh,HumidityAvg,HumidityLow,PressureMaxIn,PressureMinIn,WindSpeedMaxMPH,WindSpeedAvgMPH,GustSpeedMaxMPH,PrecipitationSumIn
2013-1-26,25,22,19,10,4,-1,55,46,37,30.13,29.99,17,7,17,0.00
2013-1-27,34,25,18,13,7,3,59,47,34,30.38,30.13,16,6,16,0.00
2013-1-28,34,28,21,32,15,2,96,60,28,30.38,29.94,7,-5,7,0.52
2013-1-29,42,36,33,40,35,32,99,95,90,30.15,29.92,3,1,3,0.44
2013-1-30,60,51,38,58,50,38,99,95,80,30.10,29.52,58,8,58,0.37
2013-1-31,60,50,34,58,42,17,98,77,46,29.54,29.03,30,10,30,0.39
2013-2-1,37,31,26,18,12,3,55,44,32,30.04,29.53,20,6,20,0.00
2013-2-2,37,28,22,24,10,1,84,48,24,30.22,30.02,15,5,15,0.00
2013-2-3,40,30,23,30,25,19,94,81,59,30.02,29.59,8,2,8,0.06
2013-2-4,36,29,26,26,13,4,87,52,31,29.88,29.61,15,7,15,0.00
2013-2-5,32,27,25,30,16,7,90,63,45,29.97,29.84,16,2,16,0.00
2013-2-6,47,35,30,32,26,14,94,73,51,30.19,29.83,11,3,11,0.07
2013-2-7,34,28,23,20,12,4,69,51,32,30.45,30.19,11,3,11,0.00
2013-2-8,36,33,29,32,27,20,94,79,67,30.44,29.45,20,7,20,0.24
2013-3-1,36,34,34,32,27,-100,87,82,81,29.61,29.60,5,-29,5,0.01
2013-3-2,52,39,35,33,30,-100,88,70,43,29.61,22.68,48,-1,48,0.01
2013-3-3,46,38,36,33,30,-100,83,74,55,29.57,29.51,9,0,9,0.00
2013-3-4,46,37,33,31,26,22,86,67,43,29.60,29.48,14,7,14,0.00
2013-3-5,47,38,34,38,31,24,88,75,66,29.96,29.60,12,5,12,0.02
2013-3-6,46,39,36,36,32,-100,90,78,65,30.00,29.85,16,-7,16,6.08
2013-3-7,39,37,35,35,33,32,89,85,80,29.86,29.75,27,13,27,0.78
2013-3-8,42,37,34,34,32,29,89,81,61,29.96,29.73,23,11,23,0.53
2013-3-9,41,38,36,32,30,-3,76,71,67,30.23,29.96,17,8,17,13.65
2013-3-10,46,37,35,32,23,-100,76,66,57,30.31,30.22,10,-52,10,0.78
2013-3-11,54,35,35,40,12,-100,88,61,54,30.26,30.11,10,-172,10,27.31
2013-3-12,54,49,43,52,44,-100,94,85,73,30.12,29.69,17,-1,17,13.89
2013-3-13,58,48,41,52,37,-100,96,70,37,29.70,29.62,15,0,15,0.50
2013-3-14,45,36,27,29,19,7,67,50,32,29.72,29.61,17,5,17,0.00
2013-3-15,47,33,24,28,13,4,67,45,23,29.78,29.58,15,7,15,0.00
2013-3-16,44,36,29,27,17,11,66,47,29,29.80,29.58,15,4,15,0.00
2013-3-17,44,34,24,29,14,2,79,48,24,30.23,29.80,13,3,13,0.00
2013-3-18,43,31,22,26,11,0,85,44,28,30.37,30.18,8,2,8,0.00
2013-3-19,42,37,29,41,34,26,96,92,86,30.19,29.39,21,6,21,0.50
2013-3-20,47,36,30,30,22,17,89,59,33,29.75,29.52,16,4,16,0.00
2013-3-21,47,35,28,31,26,20,88,69,42,29.75,29.50,12,3,12,0.00
2013-3-22,48,36,30,35,26,21,90,72,42,29.69,29.51,12,2,12,0.39
2013-3-23,49,39,32,27,22,18,64,51,34,29.72,29.59,16,7,16,0.00
2013-3-24,53,40,28,28,23,20,77,54,32,29.77,29.70,18,4,18,0.00
2013-3-25,52,38,28,35,28,20,89,67,41,29.70,29.37,16,4,16,0.00
2013-3-26,54,41,34,33,27,20,84,58,27,29.68,29.36,16,5,16,0.01
2013-3-27,60,45,35,36,29,24,84,58,25,29.76,29.67,11,3,11,0.00
2013-3-28,52,43,38,39,34,26,95,74,41,29.96,29.74,11,4,11,0.05
2013-3-29,62,46,35,40,36,30,91,67,41,29.99,29.94,11,2,11,0.00
2013-3-30,63,46,36,38,34,28,89,65,28,30.05,29.97,11,2,11,0.00
2013-3-31,62,46,29,42,33,25,96,65,25,30.07,29.73,11,3,11,0.01
2013-4-1,62,50,40,49,42,19,99,77,44,29.73,29.50,18,6,18,0.18
2013-4-2,49,39,33,22,15,10,47,37,24,29.88,29.70,18,8,18,0.00
2013-4-3,52,40,33,23,17,11,51,39,24,30.05,29.86,17,9,17,0.00
2013-4-4,55,42,34,34,22,15,77,47,22,30.22,30.05,18,7,18,0.00
2013-4-5,59,45,40,46,37,25,90,74,51,30.05,29.61,13,3,13,0.05
2013-4-6,49,39,30,29,16,7,72,42,21,30.32,29.79,17,6,17,0.00
2013-4-7,56,42,25,43,28,17,87,61,25,30.32,30.00,16,5,16,0.00
2013-4-8,68,53,44,46,42,36,89,69,35,30.09,29.91,13,4,13,0.00
2013-4-9,73,53,42,54,45,36,99,77,46,30.06,29.79,9,3,9,0.12
2013-4-10,62,50,43,48,44,41,98,82,53,29.96,29.83,11,3,11,0.22
2013-4-11,56,46,43,46,41,35,98,83,55,30.10,29.75,10,3,10,0.04
2013-4-12,45,42,38,43,36,28,99,80,56,30.12,29.60,15,5,15,0.59
2013-4-13,54,42,36,42,38,32,99,86,54,29.91,29.61,15,4,15,0.04
2013-4-14,58,47,38,46,37,30,97,72,38,30.14,29.89,12,3,12,0.00
2013-4-15,62,47,35,39,36,30,93,68,39,30.38,30.14,8,2,8,0.00
2013-4-16,64,50,35,48,40,32,97,72,42,30.37,30.06,17,5,17,0.00
2013-4-17,68,54,40,51,42,32,95,67,27,30.28,30.03,15,4,15,0.02
2013-4-18,63,49,35,47,38,31,97,69,39,30.37,30.15,11,3,11,0.00
2013-4-19,70,62,51,64,59,47,98,89,72,30.15,29.74,32,8,32,0.00
2013-4-20,66,54,43,65,50,35,99,87,59,30.14,29.66,27,6,27,0.26
2013-4-21,54,44,32,35,27,22,79,51,32,30.63,30.14,14,4,14,0.00
2013-4-22,55,43,30,41,33,26,94,69,42,30.69,30.50,14,4,14,0.00
2013-4-23,45,44,42,44,42,35,98,95,77,30.51,29.90,20,5,20,0.80
2013-4-24,67,49,44,52,46,43,99,89,57,29.91,29.72,18,7,18,0.31
2013-4-25,68,54,41,54,45,33,96,75,30,30.20,29.84,14,4,14,0.01
2013-4-26,62,49,37,44,40,36,99,76,45,30.39,30.20,11,2,11,0.02
2013-4-27,69,51,34,49,37,31,99,64,27,30.37,30.29,7,2,7,0.00
2013-4-28,70,53,33,61,40,33,99,64,31,30.32,30.23,7,2,7,11.11
2013-4-29,73,54,40,52,41,24,99,67,18,30.25,30.20,8,2,8,0.00
2013-4-30,70,52,36,46,32,22,98,56,17,30.32,30.21,11,2,11,0.00
2013-5-1,65,52,39,51,45,38,99,79,53,30.43,30.31,8,2,8,0.00
2013-5-2,78,53,38,54,43,27,99,76,19,30.41,30.34,10,2,10,0.00
2013-5-3,56,46,36,46,42,35,99,86,65,30.44,30.31,13,3,13,0.00
2013-5-4,58,48,40,45,41,39,99,78,53,30.32,30.25,14,4,14,0.00
2013-5-5,60,50,37,45,42,37,97,79,55,30.26,30.22,100,4,100,11.14
2013-5-6,67,51,37,50,45,37,99,84,52,30.24,30.14,7,2,7,0.04
2013-5-7,79,60,47,61,54,47,99,82,51,30.16,30.09,9,2,9,0.00
2013-5-8,76,61,54,63,57,54,99,89,62,30.19,30.02,11,3,11,0.21
2013-5-9,76,61,54,66,58,53,99,89,62,30.02,29.86,9,2,9,11.66
2013-5-10,79,64,54,61,56,53,99,80,47,29.95,29.85,8,3,8,23.60
2013-5-11,69,62,57,63,59,55,99,92,73,29.93,29.70,14,5,14,0.31
2013-5-12,70,61,55,63,56,40,99,85,56,29.76,29.56,12,4,12,0.15
2013-5-13,64,56,50,41,37,-47,66,50,31,29.96,29.76,14,4,14,0.00
2013-5-14,62,54,48,44,38,31,75,56,34,29.99,29.91,14,4,14,0.00
2013-5-15,69,57,50,57,44,29,93,63,27,30.03,29.65,14,5,14,0.00
2013-5-16,85,66,53,57,52,47,98,66,29,29.74,29.61,60,3,60,0.00
2013-5-17,71,59,48,53,45,40,93,61,35,30.18,29.73,12,3,12,0.45
2013-5-18,77,60,45,54,50,40,99,73,28,30.27,30.17,8,2,8,11.92
2013-5-19,77,63,53,56,51,47,98,69,38,30.32,30.22,9,3,9,0.04
2013-5-20,82,66,56,67,62,56,99,87,60,30.22,29.90,8,2,8,0.43
2013-5-21,83,64,55,69,60,54,99,89,55,29.95,29.84,8,2,8,0.00
2013-5-22,70,59,52,61,56,52,99,91,70,29.93,29.85,8,2,8,0.00
2013-5-23,75,68,62,72,65,62,99,91,76,29.93,29.85,20,5,20,12.54
2013-5-24,67,64,56,66,63,55,99,98,97,29.85,29.66,14,4,14,0.97
2013-5-25,60,53,47,55,51,44,99,93,77,29.70,29.62,11,4,11,0.07
2013-5-26,61,50,43,47,43,40,92,76,55,30.03,29.66,14,4,14,0.01
2013-5-27,75,60,50,49,44,32,86,59,24,30.14,30.02,8,3,8,0.00
2013-5-28,75,61,46,58,51,44,99,72,39,30.21,30.13,7,1,7,0.00
2013-5-29,69,61,58,64,60,57,99,95,82,30.20,29.97,7,3,7,0.41
2013-5-30,89,72,61,71,66,60,99,81,52,30.05,29.97,8,2,8,0.06
2013-5-31,95,77,64,69,65,61,97,70,39,30.06,29.94,6,2,6,0.00
2013-6-1,89,75,66,70,66,62,94,75,51,29.97,29.90,9,3,9,0.00
2013-6-2,81,71,66,68,66,63,97,83,64,29.92,29.80,12,4,12,0.00
2013-6-3,68,66,64,68,65,63,99,99,97,29.84,29.76,11,1,11,1.49
2013-6-4,74,63,52,63,50,45,99,65,39,30.04,29.76,16,3,16,0.00
2013-6-5,74,61,49,55,50,41,96,70,33,30.16,30.04,5,1,5,0.00
2013-6-6,76,62,53,59,53,50,97,75,44,30.18,30.06,5,1,5,0.00
2013-6-7,67,58,55,67,56,52,99,96,84,30.08,29.72,10,2,10,1.10
2013-6-8,76,66,58,68,63,57,99,90,66,29.96,29.52,11,4,11,0.28
2013-6-9,82,70,60,63,61,55,99,76,42,30.12,29.96,7,1,7,0.09
2013-6-10,78,64,58,63,59,57,99,87,58,30.17,29.98,7,1,7,0.24
2013-6-11,77,63,55,75,62,54,99,95,75,29.99,29.50,8,2,8,0.94
2013-6-12,74,62,55,64,58,54,99,87,64,29.75,29.52,9,2,9,0.01
2013-6-13,68,60,55,60,56,54,99,87,66,29.78,29.59,7,1,7,0.08
2013-6-14,64,57,53,57,54,52,99,90,73,29.71,29.52,11,3,11,0.53
2013-6-15,85,66,53,62,54,45,99,71,33,29.91,29.70,7,1,7,0.00
2013-6-16,89,68,57,64,60,56,99,80,42,29.91,29.72,7,2,7,0.00
2013-6-17,96,72,63,70,64,60,97,78,43,29.89,29.74,8,2,8,0.00
2013-6-18,94,68,60,69,63,60,99,84,43,29.91,29.83,7,1,7,0.08
2013-6-19,82,64,56,61,56,50,99,77,42,30.12,29.82,10,2,10,0.02
2013-6-20,90,67,53,63,56,52,99,71,34,30.25,30.12,8,2,8,0.00
2013-6-21,89,70,59,64,58,54,88,66,40,30.26,30.18,7,2,7,0.00
2013-6-22,88,71,63,65,60,55,96,70,38,30.22,30.14,6,2,6,0.30
2013-6-23,88,75,66,71,68,64,96,80,52,30.15,30.02,6,2,6,0.00
2013-6-24,97,79,69,75,71,66,97,79,50,30.02,29.85,4,1,4,0.04
2013-6-25,96,78,68,72,70,66,97,77,45,29.88,29.72,5,1,5,0.00
2013-6-26,97,78,67,75,70,66,97,80,44,29.82,29.70,5,1,5,0.01
2013-6-27,78,68,64,70,66,63,99,92,74,29.84,29.74,4,1,4,0.00
2013-6-28,73,70,66,73,70,65,99,98,94,29.74,29.54,11,2,11,0.47
2013-6-29,77,71,68,75,70,68,99,97,88,29.74,29.54,11,2,11,1.71
2013-6-30,78,72,69,73,70,69,99,93,81,29.96,29.73,6,1,6,0.07
2013-7-1,79,73,70,75,71,69,99,95,84,30.10,29.95,6,2,6,0.40
2013-7-2,87,76,71,77,73,70,97,89,69,30.19,30.09,9,2,9,0.01
2013-7-3,92,78,71,75,72,69,98,83,55,30.20,30.14,5,2,5,0.00
2013-7-4,97,81,73,78,74,72,97,82,54,30.19,30.09,5,2,5,0.00
2013-7-5,101,82,74,79,74,70,95,77,48,30.14,30.03,6,2,6,0.00
2013-7-6,100,83,74,78,75,72,94,78,48,30.06,29.94,6,1,6,0.00
2013-7-7,101,83,73,77,74,70,95,77,46,29.99,29.90,3,0,3,0.00
2013-7-8,97,80,70,76,72,68,97,81,48,30.02,29.90,5,1,5,0.00
2013-7-9,79,73,68,72,70,66,96,90,79,30.07,30.00,2,0,2,0.00
2013-7-10,89,77,70,77,73,68,99,88,62,30.06,29.82,7,1,7,0.00
2013-7-11,80,76,72,77,74,71,97,92,79,29.88,29.78,4,1,4,0.00
2013-7-12,80,71,66,72,67,63,99,90,69,30.15,29.88,6,1,6,0.00
2013-7-13,90,73,67,73,69,66,99,89,58,30.28,30.14,3,1,3,0.00
2013-7-14,97,80,71,78,73,70,99,83,48,30.27,30.17,3,0,3,0.00
2013-7-15,100,82,71,79,73,67,99,78,45,30.17,30.08,3,0,3,0.00
2013-7-16,101,81,70,76,70,65,97,73,41,30.14,30.05,5,1,5,0.00
2013-7-17,97,80,68,74,69,66,96,74,43,30.16,30.01,4,1,4,0.00
2013-7-18,98,82,75,77,72,70,90,76,44,30.02,29.93,5,1,5,0.00
2013-7-19,102,85,75,80,77,72,97,79,48,29.94,29.74,8,2,8,0.00
2013-7-20,98,84,76,80,76,74,94,79,52,29.77,29.64,8,2,8,0.00
2013-7-21,86,75,68,74,69,65,97,83,56,29.98,29.76,6,1,6,0.00
2013-7-22,86,73,67,72,69,66,99,87,60,30.25,29.86,5,1,5,0.00
2013-7-23,94,78,69,79,73,69,99,87,56,29.87,29.53,6,1,6,0.00
2013-7-24,101,81,69,77,72,68,98,79,42,29.86,29.55,3,0,3,0.00
2013-7-25,69,66,65,69,63,59,99,88,80,30.06,29.86,8,2,8,0.00
2013-7-26,68,66,65,68,66,65,99,99,99,29.98,29.82,4,2,7,0.00
2013-7-27,92,74,65,75,68,64,99,84,50,30.04,29.97,4,1,4,0.00
2013-7-28,82,73,68,76,70,68,99,93,74,30.02,29.92,2,0,2,0.00
2013-7-29,90,76,67,76,72,67,99,88,60,30.02,29.96,4,1,4,0.00
2013-7-30,88,74,67,71,66,61,99,79,47,30.06,29.98,3,1,3,0.00
2013-7-31,91,74,65,72,66,63,98,77,48,30.10,30.03,3,0,3,0.00
2013-8-1,91,74,65,70,66,62,99,79,45,30.04,29.88,4,1,4,0.00
2013-8-2,87,73,66,77,68,66,99,87,64,29.88,29.77,4,1,4,0.00
2013-8-3,78,72,70,70,68,66,92,86,74,29.87,29.77,7,1,7,0.00
2013-8-4,88,73,60,68,63,57,99,74,44,29.82,29.74,6,1,6,0.00
2013-8-5,82,68,58,63,57,50,97,69,42,30.01,29.82,5,1,5,0.00
2013-8-6,88,68,54,63,57,53,98,73,39,30.15,30.00,4,1,4,0.00
2013-8-7,86,69,57,68,58,52,99,74,40,30.17,30.11,4,1,4,0.00
2013-8-8,90,73,60,74,67,58,99,84,51,30.12,30.02,8,1,8,0.00
2013-8-9,78,74,68,74,72,67,99,95,86,30.05,29.76,12,2,12,0.00
2013-8-10,92,77,68,73,69,62,99,78,45,29.96,29.76,4,1,4,0.00
2013-8-11,88,71,59,64,60,52,95,71,35,30.04,29.96,3,0,3,0.00
2013-8-12,88,74,64,71,67,62,98,82,49,30.01,29.91,5,1,5,0.00
2013-8-13,76,70,66,73,69,66,99,95,81,29.91,29.64,2,0,2,0.01
2013-8-14,87,73,67,68,61,55,99,71,42,29.90,29.63,5,1,5,0.00
2013-8-15,87,71,63,61,56,48,78,60,33,30.10,29.90,4,1,4,0.00
2013-8-16,91,73,63,64,60,55,88,66,32,30.18,30.08,6,1,6,0.00
2013-8-17,92,72,63,68,63,60,96,76,45,30.24,30.16,4,0,4,0.00
2013-8-18,82,69,61,70,63,59,99,84,55,30.24,30.06,3,0,3,0.09
2013-8-19,89,72,59,69,65,58,99,81,47,30.06,29.92,4,1,4,0.00
2013-8-20,91,77,68,71,67,62,93,74,45,30.07,29.94,3,0,3,0.00
2013-8-21,99,78,67,71,68,66,97,76,36,30.12,30.01,3,0,3,0.00
2013-8-22,92,77,69,75,71,67,97,83,55,30.02,29.81,6,1,6,0.00
2013-8-23,83,72,62,71,64,58,96,78,53,30.05,29.78,10,1,10,0.00
2013-8-24,83,67,55,61,56,50,94,70,34,30.29,30.05,10,1,10,0.00
2013-8-25,90,71,55,64,58,50,93,67,36,30.32,30.18,6,0,6,0.00
2013-8-26,82,73,68,69,65,59,91,78,59,30.18,29.86,8,2,8,0.00
2013-8-27,74,70,66,73,69,66,99,95,90,29.87,29.81,4,0,4,0.13
2013-8-28,74,68,65,69,66,64,99,95,82,29.92,29.82,4,0,4,0.00
2013-8-29,72,66,60,67,63,58,99,93,80,30.01,29.90,7,1,7,0.00
2013-8-30,80,69,60,69,64,58,98,86,63,29.97,29.82,4,1,4,0.00
2013-8-31,82,73,69,74,71,68,99,92,75,29.85,29.80,7,1,7,0.00
2013-9-1,81,74,69,76,72,68,99,95,84,29.89,29.80,6,1,6,0.59
2013-9-2,92,76,69,78,73,69,99,89,59,29.87,29.71,5,1,5,0.00
2013-9-3,94,75,67,76,71,66,99,89,54,29.79,29.67,5,1,5,2.07
2013-9-4,87,72,63,68,64,61,99,79,47,29.91,29.77,4,1,4,0.01
2013-9-5,74,64,52,69,61,52,99,90,75,30.08,29.85,4,0,4,0.08
2013-9-6,80,60,51,56,51,47,98,77,39,30.19,30.07,5,0,5,0.00
2013-9-7,85,68,53,62,57,50,92,68,43,30.07,29.85,6,1,6,0.00
2013-9-8,86,68,56,67,58,46,89,72,51,30.03,29.71,9,1,9,0.00
2013-9-9,82,62,48,54,48,42,92,65,27,30.20,30.03,4,1,4,0.00
2013-9-10,75,66,56,67,61,54,95,84,67,30.16,30.03,11,1,11,0.00
2013-9-11,97,78,70,76,72,67,98,83,51,30.08,29.96,5,1,5,0.00
2013-9-12,88,76,70,74,71,69,97,86,60,29.98,29.69,7,2,7,0.00
2013-9-13,77,71,64,74,69,62,98,93,80,29.69,29.55,5,1,5,0.34
2013-9-14,83,66,58,64,59,54,96,80,51,30.01,29.69,4,1,4,0.00
2013-9-15,83,65,54,58,55,53,98,72,40,30.12,30.00,7,1,7,0.00
2013-9-16,69,62,53,63,57,52,98,86,70,30.14,29.98,8,1,8,0.09
2013-9-17,68,55,46,52,45,41,98,72,42,30.34,30.14,7,2,7,0.01
2013-9-18,82,61,46,58,50,41,99,72,32,30.28,30.11,6,1,6,0.00
2013-9-19,87,67,57,60,57,50,94,74,35,30.11,30.01,3,0,3,0.00
2013-9-20,91,68,56,67,59,55,99,78,33,30.06,29.98,2,0,2,0.00
2013-9-21,86,68,54,70,61,54,99,83,46,30.03,29.76,6,1,6,0.02
2013-9-22,71,67,58,68,64,51,99,90,75,29.77,29.63,6,1,6,0.22
2013-9-23,72,58,50,51,47,45,84,69,42,29.94,29.75,7,1,7,0.00
2013-9-24,70,56,49,50,47,45,94,74,44,29.93,29.79,4,1,4,0.00
2013-9-25,77,56,47,56,50,46,99,81,43,29.92,29.82,4,0,4,0.00
2013-9-26,73,58,50,55,51,47,98,80,51,30.06,29.91,4,1,4,0.00
2013-9-27,69,59,50,58,54,50,99,84,64,30.21,30.04,5,1,5,0.00
2013-9-28,85,59,48,65,53,48,99,83,40,30.27,30.20,4,1,4,0.00
2013-9-29,78,58,46,59,53,46,99,86,48,30.22,30.06,4,1,4,0.00
2013-9-30,78,61,54,66,56,53,99,87,52,30.06,29.90,6,1,6,0.00
2013-10-1,82,63,55,63,55,50,99,79,42,29.91,29.82,3,1,3,0.00
2013-10-2,91,68,58,66,61,57,99,82,42,29.90,29.78,4,0,4,0.00
2013-10-3,88,67,57,66,58,53,98,78,43,30.04,29.85,2,0,2,0.00
2013-10-4,58,58,57,58,57,56,99,98,97,30.03,30.01,0,0,0,0.00
2013-10-20,73,60,54,54,44,40,87,56,35,29.97,29.74,8,1,8,0.54
2013-10-21,77,58,49,49,44,40,90,63,35,30.08,29.97,4,0,4,0.00
2013-10-22,79,59,47,65,53,45,99,83,44,29.99,29.66,6,1,6,0.02
2013-10-23,56,49,41,47,42,37,98,79,59,29.74,29.52,2,0,2,0.21
2013-10-24,65,51,43,46,37,29,98,62,32,29.84,29.56,6,2,6,0.01
2013-10-25,64,49,45,42,35,30,72,58,38,30.12,29.84,6,2,6,0.00
2013-10-26,66,52,43,45,38,31,76,61,37,30.13,29.86,14,2,14,0.00
2013-10-27,69,54,47,46,40,33,85,59,36,30.01,29.78,5,1,5,0.01
2013-10-28,69,52,46,45,38,33,71,59,34,30.27,30.01,6,1,6,0.00
2013-10-29,59,43,32,42,34,29,89,72,47,30.34,30.26,6,1,6,0.00
2013-10-30,51,43,32,48,40,29,99,91,73,30.31,30.13,2,0,2,0.08
2013-10-31,72,56,39,61,52,39,99,87,57,30.18,29.84,11,2,11,0.01
2013-11-1,71,65,60,66,62,57,99,91,83,29.84,29.50,18,4,18,0.08
2013-11-2,66,57,52,58,54,50,98,90,70,29.68,29.55,3,0,3,0.06
2013-11-3,54,47,41,53,40,28,98,79,57,30.29,29.65,9,2,9,0.01
2013-11-4,50,41,37,31,27,25,74,59,40,30.61,30.29,10,2,10,0.00
2013-11-5,55,42,35,38,34,30,93,74,50,30.62,30.45,3,0,3,0.00
2013-11-6,67,50,37,54,45,36,97,85,44,30.47,30.03,7,1,7,0.00
2013-11-7,65,57,46,62,55,39,99,94,75,30.03,29.61,11,2,11,0.81
2013-11-8,58,46,41,39,33,25,77,61,44,30.03,29.73,10,2,10,0.01
2013-11-9,53,43,39,33,28,26,76,56,39,30.14,30.03,9,2,9,0.00
2013-11-10,62,49,39,54,43,33,96,79,69,30.05,29.69,8,1,8,0.14
2013-11-11,56,48,43,45,36,31,78,64,43,30.03,29.80,10,2,10,0.01
2013-11-12,52,40,32,46,33,21,94,79,62,30.08,29.83,8,1,8,0.21
2013-11-13,45,34,30,28,20,15,69,57,45,30.17,30.06,8,1,8,0.04
2013-11-14,56,43,34,37,30,19,75,61,31,30.12,29.98,8,2,8,0.00
2013-11-15,66,49,39,47,40,32,96,73,40,30.18,30.09,7,1,7,0.00
2013-11-16,56,46,38,46,40,32,97,81,42,30.29,30.17,3,0,3,0.00
2013-11-17,63,50,37,59,48,35,99,91,58,30.29,29.85,8,2,8,0.15
2013-11-18,64,58,49,62,54,43,99,88,65,29.86,29.54,16,3,16,0.38
2013-11-19,50,42,35,43,29,21,78,58,45,30.17,29.61,11,3,11,0.00
2013-11-20,47,36,27,26,21,18,71,56,41,30.51,30.17,10,2,10,0.00
2013-11-21,58,37,26,37,28,20,86,71,40,30.54,30.36,3,0,3,0.00
2013-11-22,51,46,36,51,44,32,99,95,85,30.36,29.78,4,0,4,0.22
2013-11-23,51,44,34,48,32,16,99,64,34,29.80,29.69,11,2,11,0.01
2013-11-24,34,28,25,19,10,-1,78,46,29,30.04,29.68,17,4,17,0.00
2013-11-25,36,28,23,20,8,0,66,43,27,30.29,30.04,11,2,11,0.00
2013-11-26,48,41,28,47,34,18,98,76,57,30.26,29.99,7,1,7,0.08
2013-11-27,62,54,42,61,54,34,99,98,97,29.99,29.07,24,5,24,1.58
2013-11-28,42,36,29,41,22,11,97,58,43,30.34,29.37,11,2,11,0.01
2013-11-29,42,31,26,22,14,7,55,48,41,30.62,30.34,8,1,8,0.00
2013-11-30,43,30,24,22,16,9,75,58,36,30.68,30.40,4,1,4,0.00
2013-12-1,53,43,28,48,38,20,98,82,58,30.40,29.88,9,2,9,0.15
2013-12-2,48,43,40,47,42,38,99,94,86,29.89,29.81,4,0,4,0.00
2013-12-3,47,43,39,43,40,36,94,90,83,29.83,29.73,8,1,8,0.01
2013-12-4,49,39,30,37,32,26,87,77,58,30.13,29.83,7,1,7,0.00
2013-12-5,56,46,30,55,43,26,97,90,84,30.15,29.90,9,2,9,0.00
2013-12-6,56,50,39,55,49,38,99,97,94,30.09,29.84,8,2,8,0.27
2013-12-7,42,38,32,38,31,17,99,79,53,30.39,29.98,7,2,7,0.33
2013-12-8,38,32,27,21,18,16,67,57,45,30.53,30.38,4,1,4,0.00
2013-12-9,48,40,33,47,37,21,98,89,59,30.44,29.79,19,3,19,0.27
2013-12-10,40,36,30,38,30,15,97,82,53,29.93,29.71,6,1,6,0.00
2013-12-11,38,32,28,20,16,14,68,54,41,30.17,29.92,0,0,0,0.04
2013-12-12,32,26,22,18,7,-2,65,45,29,30.18,30.05,0,0,0,0.00
2013-12-13,37,28,22,16,11,5,57,48,37,30.29,29.96,11,2,11,0.01
2013-12-14,32,25,20,30,14,5,91,63,49,30.51,30.11,14,3,14,0.00
2013-12-15,52,36,28,51,34,21,99,90,64,30.11,29.24,24,3,24,1.04
2013-12-16,37,30,25,23,12,0,68,48,30,30.14,29.70,8,1,8,0.00
2013-12-17,41,29,16,40,18,1,96,65,42,30.20,29.74,11,2,11,0.25
2013-12-18,38,34,31,37,28,20,96,79,60,30.03,29.65,8,2,8,0.01
2013-12-19,45,37,31,33,28,22,76,68,53,30.08,29.91,7,2,7,0.00
2013-12-20,58,43,32,45,35,25,85,74,60,30.10,29.92,8,2,8,0.00
2013-12-21,58,52,46,51,47,41,93,85,70,29.98,29.88,10,3,10,0.00
2013-12-22,59,54,45,58,52,43,95,94,91,29.97,29.81,16,3,16,0.00
2013-12-23,48,44,40,46,43,39,97,95,93,30.01,29.88,4,0,4,0.54
2013-12-24,41,36,30,40,31,17,98,83,56,30.12,29.92,6,1,6,0.14
2013-12-25,31,25,20,18,14,6,72,62,52,30.50,29.98,0,0,0,0.00
2013-12-26,45,33,21,36,26,14,93,78,60,30.45,30.00,12,1,12,0.28
2013-12-27,42,34,32,25,22,18,75,61,48,30.23,30.14,6,2,6,0.00
2013-12-28,48,39,31,35,30,22,81,69,55,30.20,29.97,8,2,8,0.00
2013-12-29,55,44,36,54,40,30,98,87,74,30.02,29.24,14,2,14,0.71
2013-12-30,47,38,26,43,30,10,99,76,48,30.09,29.34,9,2,9,0.00
2013-12-31,33,26,24,25,14,7,81,59,44,30.11,29.97,7,1,7,0.01
2014-1-1,35,26,22,11,8,5,60,45,34,30.33,30.11,8,2,8,0.00
2014-1-2,32,28,24,29,22,11,90,79,58,30.31,29.63,21,4,21,0.00